TimeCDT,TemperatureF,Dew PointF,Humidity,Sea Level PressureIn,VisibilityMPH,Wind Direction,Wind SpeedMPH,Gust SpeedMPH,PrecipitationIn,Events,Conditions,WindDirDegrees,DateUTC
12:56 AM,36.0,28.0,73,30.28,10.0,SE,5.8,-,N/A,,Overcast,130,2012-10-28 05:56:00
1:56 AM,36.0,28.9,76,30.27,10.0,SE,4.6,-,N/A,,Overcast,140,2012-10-28 06:56:00
2:56 AM,37.0,28.0,70,30.27,10.0,SSE,6.9,-,0.00,,Overcast,160,2012-10-28 07:56:00
3:56 AM,36.0,28.0,73,30.26,10.0,SSE,5.8,-,0.00,,Overcast,160,2012-10-28 08:56:00
4:56 AM,35.1,28.0,76,30.26,10.0,SE,6.9,-,N/A,,Overcast,140,2012-10-28 09:56:00
5:56 AM,33.1,27.0,78,30.26,10.0,ESE,3.5,-,0.00,,Clear,120,2012-10-28 10:56:00
6:56 AM,28.0,25.0,88,30.26,10.0,SE,4.6,-,N/A,,Clear,140,2012-10-28 11:56:00
7:56 AM,28.9,25.0,85,30.29,10.0,SSE,4.6,-,N/A,,Clear,150,2012-10-28 12:56:00
8:56 AM,34.0,28.0,79,30.29,10.0,South,8.1,-,N/A,,Clear,170,2012-10-28 13:56:00
10:56 AM,43.0,27.0,53,30.26,10.0,South,15.0,21.9,0.00,,Clear,180,2012-10-28 15:56:00
11:56 AM,46.9,28.0,48,30.24,10.0,South,17.3,-,N/A,,Clear,180,2012-10-28 16:56:00
12:56 PM,48.9,28.0,44,30.21,10.0,SSE,17.3,24.2,N/A,,Clear,160,2012-10-28 17:56:00
1:56 PM,52.0,28.0,40,30.19,10.0,South,17.3,27.6,N/A,,Clear,180,2012-10-28 18:56:00
2:56 PM,53.1,28.0,38,30.16,10.0,SSE,18.4,25.3,N/A,,Overcast,160,2012-10-28 19:56:00
3:56 PM,52.0,28.0,40,30.16,10.0,SSE,19.6,26.5,N/A,,Overcast,160,2012-10-28 20:56:00
5:56 PM,48.9,28.0,44,30.15,10.0,SSE,12.7,-,N/A,,Mostly Cloudy,150,2012-10-28 22:56:00
6:56 PM,48.0,28.9,48,30.15,10.0,SE,12.7,-,N/A,,Overcast,140,2012-10-28 23:56:00
7:56 PM,46.9,28.9,50,30.16,10.0,SSE,15.0,-,N/A,,Mostly Cloudy,150,2012-10-29 00:56:00
8:56 PM,46.9,28.0,48,30.16,10.0,SE,15.0,-,N/A,,Mostly Cloudy,140,2012-10-29 01:56:00
9:56 PM,45.0,30.0,56,30.18,10.0,SE,11.5,-,N/A,,Mostly Cloudy,140,2012-10-29 02:56:00
10:56 PM,45.0,30.0,56,30.17,10.0,SE,16.1,-,N/A,,Overcast,140,2012-10-29 03:56:00
11:56 PM,45.0,28.9,53,30.17,10.0,SE,13.8,-,N/A,,Overcast,140,2012-10-29 04:56:00